Tracking 23764 objects as of 18-Oct-2021
HD Live streaming from Space Station
objects crossing your sky now

OBJECT P

Track OBJECT P now!
10-day predictions


NORAD ID: 43862
Int'l Code: 2018-104P
Perigee: 486.5 km
Apogee: 512.1 km
Inclination: 85.0 °
Period: 94.5 minutes
Semi major axis: 6870 km
RCS: Unknown
Launch date: December 16, 2018
Source: United States (US)
Launch site: Rocket Lab Launch Complex (RLLC)
aabbcc
Your satellite tracking list
Your tracking list is empty




NASA's NSSDC Master Catalog

Two Line Element Set (TLE):
1 43862U 18104P   21290.28872267  .00004219  00000-0  16907-3 0  9995
2 43862  85.0421 213.5270 0018679  73.6391 286.6904 15.24543859157627
Source of the keplerian elements: Caltech